Regional Weather Roundup
Issued by NWS

Home | Current Version | Previous Version | Text Only | Print | Product List | Glossary Off
Versions: 1 2 3 4 5 6 7 8 9 10 11 12 13 14 15 16 17 18 19 20 21 22 23 24 25 26 27 28 29 30 31 32 33 34 35 36 37 38 39 40 41 42 43 44 45 46 47 48 49 50

000
ASUS45 KABQ 282101
RWRNM
NEW MEXICO REGIONAL WEATHER ROUNDUP
NATIONAL WEATHER SERVICE ALBUQUERQUE NM
300 PM MDT TUE JUL 28 2015

NOTE: "FAIR" MEANS FEW OR NO CLOUDS BELOW 12,000 FEET AGL WITH NO
       SIGNIFICANT WEATHER OR OBSTRUCTIONS TO VISION.

      THIS PRODUCT IS RELEASED AS TWO VERSIONS.  ONE VERSION NEAR
      THE TOP OF THE HOUR CONTAINING PRELIMINARY DATA FROM ALBUQUERQUE
      AND OTHER STATIONS.  A FINAL VERSION WITH ADDITIONAL DATA IS
      ISSUED ABOUT 10 MINUTES AFTER THE HOUR.

NMZ501-503-504-510>518-282200-
NORTHWEST PLATEAU/NORTHCENTRAL MOUNTAINS

CITY           SKY/WX    TMP DP  RH WIND       PRES   REMARKS
FARMINGTON     SUNNY     91  25   9 SW10G17   30.14F
SANTA FE       PTSUNNY   92  39  15 W15G24    30.16F
TAOS           MOSUNNY   86  37  17 W15       30.27S

$$
NMZ402-403-502-505>509-282200-
WESTCENTRAL MOUNTAINS/SOUTHWEST MOUNTAINS

CITY           SKY/WX    TMP DP  RH WIND       PRES   REMARKS
GALLUP         MOSUNNY   86  40  19 VRB6      30.22F
SILVER CITY      N/A     86  46  25 NE7       30.13F

$$
NMZ407-409-411-412-282200-
SOUTHERN DESERTS

CITY           SKY/WX    TMP DP  RH WIND       PRES   REMARKS
DEMING         SUNNY     96  49  20 W10       30.01F
ALAMOGORDO     MOSUNNY   95  48  20 S8        30.00F
T OR C         PTSUNNY   93  47  20 NE3       30.04F

$$
NMZ519>523-282200-
CENTRAL VALLEYS/CENTRAL HIGHLANDS

CITY           SKY/WX    TMP DP  RH WIND       PRES   REMARKS
ALBUQUERQUE    MOSUNNY   92  45  19 NW8       30.10F
DOUBLE EAGLE   MOSUNNY   90  46  22 NW6       30.15F
CLINES CORNERS MOSUNNY   86  41  20 VRB6      30.21F
BELEN          FAIR      92  40  16 E9        30.08R
SOCORRO        NOT AVBL

$$
NMZ524>526-539-540-282200-
SOUTHCENTRAL MOUNTAINS

CITY           SKY/WX    TMP DP  RH WIND       PRES   REMARKS
RUIDOSO          N/A    N/A N/A N/A MISG        N/A

$$
NMZ527>531-282200-
NORTHEAST HIGHLANDS/NORTHEAST PLAINS

CITY           SKY/WX    TMP DP  RH WIND       PRES   REMARKS
LAS VEGAS      CLOUDY    75  47  36 NE12      30.25R
RATON          MOSUNNY   86  46  24 E13       30.17F
CLAYTON        MOSUNNY   84  48  28 NE15G21   30.14F

$$
NMZ532>537-282200-
EASTCENTRAL PLAINS

CITY           SKY/WX    TMP DP  RH WIND       PRES   REMARKS
TUCUMCARI      MOSUNNY   93  56  28 SE17G26   29.99S
CANNON AFB     SUNNY     97  58  27 S10       30.00F HX  96
CLOVIS AIRPORT SUNNY     97  59  28 SE12G20   30.02F HX  96

$$
NMZ028-029-538-282200-
SOUTHEAST PLAINS

CITY           SKY/WX    TMP DP  RH WIND       PRES   REMARKS
ROSWELL        SUNNY    104  51  17 SE12      29.95S HX 101
ARTESIA        MOSUNNY   99  55  23 VRB8G18   29.94F HX  97
CARLSBAD       SUNNY    103  53  19 SE12G18   29.91F HX 101
HOBBS          SUNNY     99  50  19 SE10G16   29.99F HX  95


$$


USA.gov is the U.S. government's official web portal to all federal, state and local government web resources and services.